Tracking 18852 objects as of 23-Nov-2017
HD Live streaming from Space Station
objects crossing your sky now

FENGYUN 1C DEB

Track FENGYUN 1C DEB now!
10-day predictions


NORAD ID: 30369
Int'l Code: 1999-025ACG
Perigee: 793.1 km
Apogee: 939.7 km
Inclination: 98.9 °
Period: 102.1 minutes
Semi major axis: 7237 km
RCS: 0.022 m2 (small)
Launch date: May 10, 1999
Source: People's Republic of China (PRC)
Launch site: Taiyaun Space Center, China (TSC)

Note: This is SATELLITE DEBRIS
aabbcc
Your satellite tracking list
Your tracking list is empty




NASA's NSSDC Master Catalog

Two Line Element Set (TLE):
1 30369U 99025ACG 17326.56594771 +.00000019 +00000-0 +34474-4 0  9995
2 30369 098.8834 354.2650 0101264 249.5702 263.5542 14.10025300557674
Source of the keplerian elements: AFSPC